Tracking 29892 objects as of 21-Nov-2024
HD Live streaming from Space Station
objects crossing your sky now

STARLINK-5213

Track STARLINK-5213 now!
10-day predictions
STARLINK-5213 is classified as:


NORAD ID: 54093
Int'l Code: 2022-136AU
Perigee: 545.9 km
Apogee: 547.9 km
Inclination: 53.2 °
Period: 95.4 minutes
Semi major axis: 6917 km
RCS: Unknown
Launch date: October 20, 2022
Source: United States (US)
Launch site: AIR FORCE EASTERN TEST RANGE (AFETR)
Your satellite tracking list
Your tracking list is empty




NASA's NSSDC Master Catalog

Two Line Element Set (TLE):
1 54093U 22136AU  24325.91461093  .00001079  00000-0  85871-4 0  9994
2 54093  53.2180 300.7298 0001488  87.5786 272.5377 15.08835117115934
Source of the keplerian elements: AFSPC